Location: Pedholt
(56.0260°N, 10.2097°E)
Time: 20:16:32
(UTC+00:00)

Tiros 1 - Pass Details

Date: 01 August 2021
Orbit: 630 x 663 km, 48.4° (Epoch: 19 September)

Event Time Altitude Azimuth Distance (km) Brightness Sun altitude
Rises 23:09:54 0° 268° (W) 2,961 10.6 -16.1°
Reaches altitude 10° 23:13:55 10° 235° (SW) 2,037 9.4 -16.2°
Enters shadow 23:13:57 10° 235° (SW) 2,034 9.4 -16.2°
Maximum altitude 23:15:19 11° 217° (SW) 1,949 - -16.2°
Drops below altitude 10° 23:16:43 10° 200° (SSW) 2,027 - -16.2°
Sets 23:20:42 0° 166° (SSE) 2,922 - -16.2°
